SAS22SM EKCH-ESKS

Flight info

Callsign SAS22SM
Flight time 0h 58m
Altitude 37000
Route VEDAR L997 LASLI DCT TEKVA DCT INBES
Aircraft A319/M-SDE3FGIJ1RWXY/LB1

Departure

Time 2026-05-04 18:15
Airport Copenhagen Kastrup Airport (EKCH)

Arrival

Time 2026-05-04 19:14
Airport Scandinavian Mountains Airport (ESKS)
Time Latitude Longitude Altitude Speed Heading
2026-05-04 17:36 55.62763 12.64304 20 ft 0 kts 296°
2026-05-04 18:05 55.62759 12.64318 17 ft 4 kts 297°
2026-05-04 18:05 55.62746 12.64357 17 ft 4 kts 322°
2026-05-04 18:06 55.62706 12.64345 20 ft 4 kts 24°
2026-05-04 18:06 55.62681 12.64326 18 ft 4 kts 22°
2026-05-04 18:06 55.62657 12.64309 17 ft 2 kts 22°
2026-05-04 18:07 55.62636 12.64294 19 ft 4 kts 26°
2026-05-04 18:07 55.62613 12.64271 18 ft 4 kts 32°
2026-05-04 18:07 55.62590 12.64245 20 ft 4 kts 35°
2026-05-04 18:07 55.62577 12.64229 18 ft 4 kts 33°
2026-05-04 18:08 55.62550 12.64191 19 ft 4 kts 63°
2026-05-04 18:08 55.62547 12.64152 20 ft 4 kts 101°
2026-05-04 18:08 55.62556 12.64108 18 ft 4 kts 122°
2026-05-04 18:08 55.62566 12.64081 19 ft 4 kts 125°
2026-05-04 18:09 55.62572 12.64067 17 ft 4 kts 123°
2026-05-04 18:11 55.62565 12.64084 19 ft 7 kts 123°
2026-05-04 18:11 55.62509 12.64238 18 ft 18 kts 122°
2026-05-04 18:11 55.62430 12.64422 17 ft 19 kts 135°
2026-05-04 18:12 55.62343 12.64428 17 ft 0 kts 196°
2026-05-04 18:12 55.62336 12.64425 17 ft 0 kts 196°
2026-05-04 18:12 55.62312 12.64413 19 ft 9 kts 196°
2026-05-04 18:13 55.62190 12.64339 16 ft 25 kts 205°
2026-05-04 18:13 55.62033 12.64208 17 ft 26 kts 205°
2026-05-04 18:13 55.61758 12.64079 17 ft 11 kts 176°
2026-05-04 18:14 55.61737 12.64082 19 ft 4 kts 176°
2026-05-04 18:14 55.61689 12.64087 19 ft 10 kts 176°
2026-05-04 18:14 55.61602 12.64039 18 ft 15 kts 219°
2026-05-04 18:15 55.61156 12.63347 21 ft 98 kts 221°
2026-05-04 18:15 55.59622 12.60995 283 ft 174 kts 224°
2026-05-04 18:15 55.58743 12.59596 1128 ft 167 kts 226°
2026-05-04 18:16 55.57862 12.58185 1680 ft 182 kts 225°
2026-05-04 18:16 55.56829 12.56592 2002 ft 211 kts 224°
2026-05-04 18:16 55.55751 12.54652 2474 ft 234 kts 243°
2026-05-04 18:17 55.55834 12.48812 4201 ft 247 kts 284°
2026-05-04 18:17 55.56301 12.45869 5220 ft 253 kts 285°
2026-05-04 18:17 55.57143 12.39789 7271 ft 254 kts 281°
2026-05-04 18:18 55.57490 12.36719 8230 ft 259 kts 283°
2026-05-04 18:18 55.58278 12.33861 9213 ft 261 kts 304°
2026-05-04 18:18 55.59627 12.31598 10000 ft 276 kts 323°
2026-05-04 18:18 55.61450 12.30347 10774 ft 290 kts 347°
2026-05-04 18:19 55.65765 12.29595 11634 ft 327 kts 350°
2026-05-04 18:19 55.68047 12.29204 12388 ft 332 kts 349°
2026-05-04 18:19 55.70362 12.28792 13172 ft 336 kts 349°
2026-05-04 18:20 55.72705 12.28362 13911 ft 341 kts 349°
2026-05-04 18:20 55.75108 12.27915 14599 ft 344 kts 349°
2026-05-04 18:20 55.77471 12.27478 15279 ft 348 kts 349°
2026-05-04 18:20 55.79896 12.27101 15964 ft 352 kts 351°
2026-05-04 18:21 55.82352 12.26827 16646 ft 356 kts 352°
2026-05-04 18:21 55.84838 12.26604 17319 ft 360 kts 352°
2026-05-04 18:21 55.87350 12.26396 17999 ft 363 kts 352°
2026-05-04 18:21 55.89881 12.26183 18608 ft 366 kts 352°
2026-05-04 18:22 55.92442 12.25951 19207 ft 369 kts 352°
2026-05-04 18:22 55.95015 12.25701 19820 ft 372 kts 352°
2026-05-04 18:22 55.97611 12.25443 20420 ft 375 kts 352°
2026-05-04 18:22 56.00229 12.25178 21007 ft 378 kts 352°
2026-05-04 18:23 56.02868 12.24909 21582 ft 382 kts 352°
2026-05-04 18:23 56.05533 12.24640 22151 ft 385 kts 352°
2026-05-04 18:23 56.08218 12.24366 22721 ft 388 kts 352°
2026-05-04 18:23 56.10922 12.24036 23281 ft 389 kts 348°
2026-05-04 18:24 56.13606 12.23321 23782 ft 391 kts 346°
2026-05-04 18:24 56.16306 12.22576 24235 ft 394 kts 346°
2026-05-04 18:24 56.19028 12.21823 24691 ft 397 kts 346°
2026-05-04 18:24 56.21770 12.21067 25138 ft 400 kts 347°
2026-05-04 18:25 56.24530 12.20307 25601 ft 403 kts 347°
2026-05-04 18:25 56.27310 12.19542 26049 ft 405 kts 347°
2026-05-04 18:25 56.30109 12.18767 26495 ft 408 kts 347°
2026-05-04 18:25 56.32973 12.18559 26904 ft 418 kts 359°
2026-05-04 18:26 56.35884 12.18922 27332 ft 421 kts 360°
2026-05-04 18:26 56.38812 12.19310 27757 ft 424 kts
2026-05-04 18:26 56.41761 12.19708 28186 ft 426 kts
2026-05-04 18:26 56.44733 12.20106 28603 ft 429 kts
2026-05-04 18:27 56.47720 12.20507 29016 ft 432 kts
2026-05-04 18:27 56.50728 12.20912 29423 ft 435 kts 360°
2026-05-04 18:27 56.53759 12.21319 29844 ft 438 kts 359°
2026-05-04 18:27 56.56816 12.21732 30187 ft 442 kts 359°
2026-05-04 18:28 56.59888 12.22150 30523 ft 444 kts 359°
2026-05-04 18:28 56.62977 12.22568 30857 ft 446 kts 359°
2026-05-04 18:28 56.66079 12.22982 31185 ft 448 kts 359°
2026-05-04 18:28 56.69195 12.23399 31502 ft 450 kts 359°
2026-05-04 18:29 56.72322 12.23816 31902 ft 450 kts 359°
2026-05-04 18:29 56.75437 12.24233 32371 ft 449 kts 359°
2026-05-04 18:29 56.78547 12.24650 32870 ft 447 kts 359°
2026-05-04 18:29 56.81647 12.25068 33327 ft 446 kts 359°
2026-05-04 18:30 56.87825 12.25902 34199 ft 444 kts 359°
2026-05-04 18:30 56.90903 12.26322 34567 ft 444 kts 359°
2026-05-04 18:30 56.93982 12.26744 34918 ft 443 kts 359°
2026-05-04 18:31 56.97058 12.27166 35258 ft 443 kts 359°
2026-05-04 18:31 57.00130 12.27586 35587 ft 443 kts 359°
2026-05-04 18:31 57.03200 12.28005 35904 ft 443 kts 359°
2026-05-04 18:31 57.06272 12.28428 36254 ft 442 kts 359°
2026-05-04 18:32 57.09340 12.28849 36593 ft 442 kts 359°
2026-05-04 18:32 57.12401 12.29269 36854 ft 442 kts 359°
2026-05-04 18:32 57.15468 12.29689 36914 ft 441 kts 359°
2026-05-04 18:33 57.21584 12.30530 36907 ft 441 kts 359°
2026-05-04 18:33 57.27700 12.31379 36909 ft 441 kts 359°
2026-05-04 18:34 57.33816 12.32230 36918 ft 440 kts 358°
2026-05-04 18:34 57.39917 12.33072 36908 ft 440 kts 358°
2026-05-04 18:35 57.46022 12.33928 36900 ft 440 kts 359°
2026-05-04 18:35 57.52124 12.34789 36900 ft 440 kts 358°
2026-05-04 18:36 57.58225 12.35647 36892 ft 440 kts 358°
2026-05-04 18:36 57.64328 12.36505 36921 ft 440 kts 358°
2026-05-04 18:37 57.70395 12.37368 36911 ft 440 kts 358°
2026-05-04 18:37 57.76497 12.38223 36902 ft 440 kts 358°
2026-05-04 18:38 57.82600 12.39085 36892 ft 440 kts 358°
2026-05-04 18:38 57.88703 12.39963 36917 ft 440 kts 358°
2026-05-04 18:39 57.94811 12.40852 36878 ft 440 kts 358°
2026-05-04 18:39 58.00925 12.41733 36846 ft 441 kts 358°
2026-05-04 18:40 58.07049 12.42622 36839 ft 442 kts 358°
2026-05-04 18:40 58.13176 12.43515 36832 ft 442 kts 358°
2026-05-04 18:41 58.19308 12.44413 36831 ft 442 kts 358°
2026-05-04 18:41 58.25439 12.45309 36830 ft 442 kts 358°
2026-05-04 18:42 58.31569 12.46202 36843 ft 442 kts 358°
2026-05-04 18:42 58.37699 12.47105 36824 ft 442 kts 358°
2026-05-04 18:43 58.43823 12.48014 36844 ft 442 kts 357°
2026-05-04 18:43 58.49937 12.48916 36812 ft 440 kts 357°
2026-05-04 18:44 58.56050 12.49817 36805 ft 441 kts 357°
2026-05-04 18:44 58.62165 12.50726 36803 ft 441 kts 357°
2026-05-04 18:45 58.68245 12.51644 36795 ft 441 kts 357°
2026-05-04 18:45 58.74367 12.52561 36814 ft 441 kts 357°
2026-05-04 18:46 58.80493 12.53479 36796 ft 441 kts 357°
2026-05-04 18:46 58.86618 12.54404 36791 ft 441 kts 357°
2026-05-04 18:47 58.92742 12.55338 36777 ft 442 kts 357°
2026-05-04 18:47 58.98865 12.56277 36774 ft 441 kts 357°
2026-05-04 18:48 59.04993 12.57217 36782 ft 442 kts 357°
2026-05-04 18:48 59.11128 12.58163 36748 ft 442 kts 357°
2026-05-04 18:49 59.17265 12.59103 36739 ft 443 kts 357°
2026-05-04 18:49 59.20338 12.59576 36271 ft 445 kts 357°
2026-05-04 18:49 59.23478 12.60050 35214 ft 458 kts 357°
2026-05-04 18:49 59.26666 12.60532 34531 ft 459 kts 357°
2026-05-04 18:50 59.29835 12.61028 33790 ft 455 kts 356°
2026-05-04 18:50 59.32972 12.61535 33009 ft 448 kts 356°
2026-05-04 18:50 59.36029 12.62043 32569 ft 434 kts 356°
2026-05-04 18:50 59.38996 12.62536 32098 ft 421 kts 355°
2026-05-04 18:51 59.41873 12.62999 31656 ft 409 kts 355°
2026-05-04 18:51 59.44667 12.63438 31232 ft 397 kts 354°
2026-05-04 18:51 59.47397 12.63856 30740 ft 392 kts 354°
2026-05-04 18:51 59.50101 12.64260 30404 ft 388 kts 354°
2026-05-04 18:52 59.52793 12.64662 30009 ft 387 kts 354°
2026-05-04 18:52 59.55472 12.65064 29588 ft 385 kts 353°
2026-05-04 18:52 59.58137 12.65473 29190 ft 384 kts 353°
2026-05-04 18:52 59.59897 12.65751 28925 ft 382 kts 353°
2026-05-04 18:53 59.62538 12.66175 28554 ft 379 kts 353°
2026-05-04 18:53 59.65158 12.66599 28191 ft 376 kts 353°
2026-05-04 18:53 59.67753 12.67019 27821 ft 373 kts 353°
2026-05-04 18:53 59.70330 12.67435 27453 ft 370 kts 353°
2026-05-04 18:54 59.72886 12.67849 27091 ft 367 kts 352°
2026-05-04 18:54 59.75422 12.68258 26728 ft 364 kts 352°
2026-05-04 18:54 59.77940 12.68663 26352 ft 362 kts 352°
2026-05-04 18:54 59.80437 12.69063 25975 ft 358 kts 352°
2026-05-04 18:55 59.82906 12.69453 25605 ft 355 kts 352°
2026-05-04 18:55 59.87803 12.70238 24851 ft 352 kts 350°
2026-05-04 18:55 59.90238 12.70627 24461 ft 350 kts 350°
2026-05-04 18:56 59.92659 12.71015 24061 ft 348 kts 350°
2026-05-04 18:56 59.95067 12.71398 23673 ft 346 kts 350°
2026-05-04 18:56 59.97464 12.71779 23289 ft 345 kts 350°
2026-05-04 18:56 59.99811 12.71851 22861 ft 331 kts 343°
2026-05-04 18:57 60.02102 12.71675 22484 ft 328 kts 343°
2026-05-04 18:57 60.04372 12.71505 22112 ft 325 kts 343°
2026-05-04 18:57 60.06622 12.71335 21742 ft 321 kts 343°
2026-05-04 18:57 60.08844 12.71162 21374 ft 318 kts 343°
2026-05-04 18:58 60.11007 12.70989 21016 ft 314 kts 343°
2026-05-04 18:58 60.13212 12.70809 20651 ft 311 kts 342°
2026-05-04 18:58 60.15371 12.70635 20335 ft 311 kts 342°
2026-05-04 18:58 60.17500 12.70462 19944 ft 310 kts 342°
2026-05-04 18:59 60.19650 12.70287 19582 ft 309 kts 342°
2026-05-04 18:59 60.21796 12.70115 19223 ft 308 kts 342°
2026-05-04 18:59 60.23939 12.69943 18865 ft 307 kts 343°
2026-05-04 18:59 60.26071 12.69775 18513 ft 306 kts 343°
2026-05-04 19:00 60.28197 12.69609 18151 ft 305 kts 343°
2026-05-04 19:00 60.30312 12.69450 17770 ft 303 kts 343°
2026-05-04 19:00 60.32409 12.69291 17402 ft 301 kts 344°
2026-05-04 19:00 60.34496 12.69127 17052 ft 299 kts 344°
2026-05-04 19:01 60.36574 12.68959 16701 ft 298 kts 345°
2026-05-04 19:01 60.38645 12.68789 16350 ft 297 kts 345°
2026-05-04 19:01 60.40705 12.68618 16003 ft 296 kts 346°
2026-05-04 19:01 60.42756 12.68449 15654 ft 294 kts 346°
2026-05-04 19:02 60.44799 12.68282 15347 ft 293 kts 347°
2026-05-04 19:02 60.46839 12.68118 14973 ft 293 kts 347°
2026-05-04 19:02 60.48872 12.67957 14631 ft 292 kts 348°
2026-05-04 19:02 60.50902 12.67797 14294 ft 292 kts 348°
2026-05-04 19:03 60.52930 12.67632 13946 ft 291 kts 348°
2026-05-04 19:03 60.54953 12.67465 13610 ft 291 kts 349°
2026-05-04 19:03 60.56979 12.67301 13244 ft 291 kts 349°
2026-05-04 19:03 60.58999 12.67136 12892 ft 290 kts 349°
2026-05-04 19:04 60.61015 12.66977 12553 ft 290 kts 349°
2026-05-04 19:04 60.63027 12.66814 12207 ft 289 kts 349°
2026-05-04 19:04 60.65032 12.66653 11873 ft 288 kts 349°
2026-05-04 19:04 60.67036 12.66488 11528 ft 288 kts 349°
2026-05-04 19:05 60.69033 12.66323 11184 ft 287 kts 350°
2026-05-04 19:05 60.71024 12.66159 10841 ft 286 kts 350°
2026-05-04 19:05 60.72983 12.65999 10506 ft 285 kts 350°
2026-05-04 19:05 60.74965 12.65836 10187 ft 285 kts 350°
2026-05-04 19:06 60.76950 12.65676 9828 ft 285 kts 351°
2026-05-04 19:06 60.78989 12.66140 9658 ft 300 kts 10°
2026-05-04 19:06 60.80893 12.67938 9510 ft 314 kts 29°
2026-05-04 19:06 60.82456 12.71119 9121 ft 320 kts 53°
2026-05-04 19:07 60.83676 12.74942 8687 ft 319 kts 55°
2026-05-04 19:07 60.84872 12.78701 8244 ft 313 kts 55°
2026-05-04 19:07 60.86066 12.82431 7905 ft 311 kts 54°
2026-05-04 19:07 60.87253 12.86128 7542 ft 309 kts 54°
2026-05-04 19:08 60.88428 12.89798 7145 ft 308 kts 54°
2026-05-04 19:08 60.89586 12.93422 6999 ft 299 kts 54°
2026-05-04 19:08 60.90705 12.96934 6867 ft 289 kts 54°
2026-05-04 19:08 60.91794 13.00331 6735 ft 280 kts 53°
2026-05-04 19:09 60.93069 13.03231 6605 ft 267 kts 35°
2026-05-04 19:09 60.94602 13.05230 6398 ft 257 kts 19°
2026-05-04 19:09 60.96284 13.06306 6131 ft 250 kts
2026-05-04 19:09 60.97989 13.06458 5854 ft 242 kts 349°
2026-05-04 19:10 60.99612 13.05757 5528 ft 235 kts 335°
2026-05-04 19:10 61.01062 13.04311 5214 ft 229 kts 323°
2026-05-04 19:10 61.02395 13.02511 4904 ft 228 kts 322°
2026-05-04 19:10 61.03710 13.00739 4590 ft 224 kts 323°
2026-05-04 19:11 61.05006 12.98988 4276 ft 221 kts 323°
2026-05-04 19:11 61.06278 12.97266 3966 ft 217 kts 323°
2026-05-04 19:11 61.07522 12.95582 3667 ft 209 kts 323°
2026-05-04 19:11 61.08697 12.93991 3386 ft 196 kts 323°
2026-05-04 19:12 61.09794 12.92505 3157 ft 182 kts 323°
2026-05-04 19:12 61.11770 12.89821 2649 ft 156 kts 323°
2026-05-04 19:12 61.12635 12.88644 2408 ft 143 kts 323°
2026-05-04 19:13 61.13442 12.87545 2206 ft 135 kts 324°
2026-05-04 19:13 61.14219 12.86481 2000 ft 132 kts 324°
2026-05-04 19:13 61.14981 12.85434 1822 ft 131 kts 325°
2026-05-04 19:13 61.15745 12.84399 1674 ft 130 kts 326°
2026-05-04 19:14 61.16434 12.83447 1645 ft 92 kts 328°
2026-05-04 19:14 61.16737 12.83051 1641 ft 33 kts 326°
2026-05-04 19:14 61.16968 12.82745 1643 ft 46 kts 328°
2026-05-04 19:14 61.17278 12.82330 1646 ft 59 kts 324°
2026-05-04 19:15 61.17471 12.81979 1648 ft 8 kts 21°
2026-05-04 19:15 61.17437 12.82069 1648 ft 26 kts 144°
2026-05-04 19:15 61.17209 12.82397 1646 ft 43 kts 146°
2026-05-04 19:15 61.16959 12.82740 1643 ft 45 kts 146°
2026-05-04 19:16 61.16688 12.83115 1642 ft 48 kts 146°
2026-05-04 19:16 61.16422 12.83484 1645 ft 43 kts 146°
2026-05-04 19:16 61.16172 12.83829 1651 ft 43 kts 146°
2026-05-04 19:16 61.15941 12.84142 1661 ft 28 kts 147°
2026-05-04 19:17 61.15788 12.84269 1651 ft 24 kts 206°
2026-05-04 19:17 61.15696 12.84047 1647 ft 14 kts 210°
2026-05-04 19:17 61.15622 12.84114 1644 ft 14 kts 145°
2026-05-04 19:17 61.15564 12.84124 1643 ft 6 kts 256°
2026-05-04 19:18 61.15565 12.84082 1643 ft 2 kts 276°
2026-05-04 19:18 61.15566 12.84072 1642 ft 0 kts 277°